Regional Weather Roundup
Issued by NWS

Home | Current Version | Previous Version | Text Only | Print | Product List | Glossary On
Versions: 1 2 3 4 5 6 7 8 9 10 11 12 13 14 15 16 17 18 19 20 21 22 23 24 25 26 27 28 29 30 31 32 33 34 35 36 37 38 39 40 41 42 43 44 45 46 47 48 49 50
000
ASUS45 KPSR 052010
RWRAZ

ARIZONA REGIONAL HOURLY WEATHER ROUNDUP
NATIONAL WEATHER SERVICE PHOENIX AZ
100 PM MST TUE MAY 05 2015

NOTE: FAIR INDICATES FEW OR NO CLOUDS BELOW 12,000 FEET WITH NO
SIGNIFICANT WEATHER AND/OR OBSTRUCTIONS TO VISIBILITY.

AZZ001>003-036-052100-
NORTHWEST ARIZONA

CITY           SKY/WX    TMP DP  RH WIND       PRES   REMARKS
BULLHEAD CITY  SUNNY     81  50  34 SW14      29.83F
KINGMAN        SUNNY     73  45  36 SW17G23   29.91F
$$

AZZ004>008-015-016-018-052100-
NORTH CENTRAL ARIZONA

CITY           SKY/WX    TMP DP  RH WIND       PRES   REMARKS
GRAND CANYON   CLOUDY    53  41  63 W10       29.99F
WILLIAMS       CLOUDY    48  45  87 VRB6G15   30.09S
PRESCOTT       PTSUNNY   62  43  49 NW7       29.99F
FLAGSTAFF      LGT RAIN  47  45  93 SW10      30.02S FOG
PAYSON         DRIZZLE   55  46  71 SW10      30.02S
PAGE           PTSUNNY   70  44  39 VRB5      29.83F
$$

AZZ009>014-017-052100-
NORTHEAST ARIZONA

CITY           SKY/WX    TMP DP  RH WIND       PRES   REMARKS
WINSLOW        CLOUDY    62  43  49 SW17G25   29.91F
SAINT JOHNS    LGT RAIN  53  46  77 W10       29.96S
WINDOW ROCK    PTSUNNY   56  40  55 W12G21    29.96S
SHOW LOW       PTSUNNY   50  43  76 SW16      30.02F
$$

AZZ023-052100-
GREATER PHOENIX AREA

CITY           SKY/WX    TMP DP  RH WIND       PRES   REMARKS
PHOENIX        MOSUNNY   81  49  32 SW10      29.86F
GLENDALE       MOSUNNY   79  48  34 CALM      29.89F
LUKE AFB       MOSUNNY   80  48  33 SW6       29.86F
DEER VALLEY    MOSUNNY   77  47  34 VRB7      29.87F
SCOTTSDALE     MOSUNNY   76  50  40 VRB3      29.89F
MESA-FALCON    PTSUNNY   79  46  31 SW12      29.88F
MESA-GATEWAY   MOSUNNY   77  46  33 W7        29.90F
CHANDLER       PTSUNNY   79  48  34 S8G15     29.88F
$$

AZZ027-028-052100-
SOUTHWEST MARICOPA COUNTY AND PINAL COUNTY

CITY           SKY/WX    TMP DP  RH WIND       PRES   REMARKS
CASA GRANDE    MOSUNNY   79  46  31 SW3       29.88F
GILA BEND      MOSUNNY   81  50  34 VRB5      29.85F
$$

AZZ503-504-507>509-052100-
SOUTHEAST ARIZONA

CITY           SKY/WX    TMP DP  RH WIND       PRES   REMARKS
TUCSON         MOSUNNY   77  44  30 W14       29.94F
DAVIS-MONTHAN  MOSUNNY   78  44  30 W8G24     29.92F
RYAN FIELD       N/A     77  50  38 NW12G17   29.94F
NOGALES        MOSUNNY   73  37  27 MISG      29.98F
SIERRA VISTA   PTSUNNY   70  32  24 W16G25    30.01F
DOUGLAS        CLOUDY    72  36  26 NW7       29.96F
SAFFORD        SUNNY     77  42  28 W14G21    29.91F
$$

AZZ020-021-025-026-031-052100-
SOUTHWEST ARIZONA

CITY           SKY/WX    TMP DP  RH WIND       PRES   REMARKS
YUMA           MOSUNNY   85  46  25 SW9       29.83F
$$

CAZ031-033-041-043-047-048-061-052100-
SOUTHERN CALIFORNIA

CITY           SKY/WX    TMP DP  RH WIND       PRES   REMARKS
DOWNTOWN L.A.  CLOUDY    65  50  58 VRB3      29.98S
L.A. AIRPORT   PTSUNNY   62  49  62 W13       29.99F
SAN DIEGO      PTSUNNY   66  48  52 W8        30.01S
BURBANK        CLOUDY    64  46  52 S7        29.97F
ONTARIO        CLOUDY    66  46  48 SW8       29.96F
RIVERSIDE      MOSUNNY   68  46  45 VRB5      29.96F
PALM SPRINGS   SUNNY     83  42  23 VRB6      29.85F
EL CENTRO NAS  MOSUNNY   84  40  21 VRB3      29.83F
IMPERIAL       SUNNY     84  39  20 VRB3      29.81F
BLYTHE         SUNNY     82  51  34 S13G20    29.83F
NEEDLES        SUNNY     84  44  24 SW10G18   29.82F
$$

NVZ020-UTZ003-052100-
SOUTHERN NEVADA-UTAH

CITY           SKY/WX    TMP DP  RH WIND       PRES   REMARKS
LAS VEGAS      MOSUNNY   81  35  19 S9G20     29.77F
SALT LAKE CITY CLOUDY    62  45  53 W6        29.83F
$$

NMZ009-TXZ055-052100-
NEW MEXICO-WEST TEXAS

CITY           SKY/WX    TMP DP  RH WIND       PRES   REMARKS
ALBUQUERQUE    LGT RAIN  57  43  59 W9        29.93S
EL PASO        MOSUNNY   78  34  20 SW15G26   29.92F
$$


........................KEY........................
SKY/WX - SKY CONDITION/WEATHER
TMP    - TEMPERATURE IN FAHRENHEIT
DP     - DEW POINT IN FAHRENHEIT
RH     - RELATIVE HUMIDITY IN PERCENT
WIND   - DIRECTION AND SPEED IN MILES PER HOUR (MPH)
VRB    - VARIABLE WIND DIRECTION
PRES   - MEAN SEA LEVEL PRESSURE IN INCHES OF MERCURY
         F - FALLING PRESSURE   R - RISING PRESSURE
         S - STEADY PRESSURE
VSB    - VISIBILITY IN MILES
HX     - HEAT INDEX IN FAHRENHEIT
WCI    - WIND CHILL INDEX IN FAHRENHEIT
TC     - TEMPERATURE IN CELSIUS WHICH IS ALSO KNOWN AS
         TEMPERATURE IN CENTIGRADE
AFB    - AIR FORCE BASE
         LUKE AFB IS LUKE AIR FORCE BASE
         DAVIS-MONTHAN IS DAVIS-MONTHAN AIR FORCE BASE
NAS    - NAVAL AIR STATION
         EL CENTRO NAS IS EL CENTRO NAVAL AIR STATION
N/A    - NOT AVAILABLE




USA.gov is the U.S. government's official web portal to all federal, state and local government web resources and services.